Regional Weather Roundup
Issued by NWS

Home | Current Version | Previous Version | Graphics & Text | Print | Product List | Glossary On
Versions: 1 2 3 4 5 6 7 8 9 10 11 12 13 14 15 16 17 18 19 20 21 22 23 24 25 26 27 28 29 30 31 32 33 34 35 36 37 38 39 40 41 42 43 44 45 46 47 48 49 50
000
ASUS43 KLOT 140908
RWRIL

ILLINOIS REGIONAL WEATHER ROUNDUP
NATIONAL WEATHER SERVICE CHICAGO/ROMEOVILLE IL
300 AM CST THU DEC 14 2017

NOTE: "FAIR" INDICATES FEW OR NO CLOUDS BELOW 12,000 FEET WITH NO
SIGNIFICANT WEATHER AND/OR OBSTRUCTIONS TO VISIBILITY.

* THESE STATIONS ARE NOT UNDER NWS QUALITY CONTROL. THEY ALSO MAY NOT
  REPORT WEATHER SUCH AS PRECIPITATION OR FOG.

ILZ001-002-007-009-015-016-024-141000-
NORTHWEST ILLINOIS

CITY           SKY/WX    TMP DP  RH WIND       PRES   REMARKS
MOLINE         CLOUDY    25  16  68 N9        29.98R WCI  15
STERLING*      CLEAR     20  14  77 N8        29.97R WCI  10
SAVANNA*       CLOUDY    23  15  70 N9        29.98R WCI  13
$$

ILZ003-004-008-010-011-017-018-141000-
NORTH CENTRAL ILLINOIS

CITY           SKY/WX    TMP DP  RH WIND       PRES   REMARKS
ROCKFORD       CLEAR     17   9  70 N8        29.96R WCI   7
FREEPORT*      PTCLDY    14  10  83 N6        29.97R WCI   5
ROCHELLE*      CLEAR     17  11  79 N9        29.95R WCI   5
DE KALB*       CLEAR     16  11  80 NW7       29.93R WCI   6
PERU*          PTCLDY    20  15  79 N10       29.95R WCI   9
$$

ILZ005-006-012>014-019>023-141000-
NORTHEAST ILLINOIS

CITY           SKY/WX    TMP DP  RH WIND       PRES   REMARKS
CHICAGO-OHARE  PTCLDY    20  12  71 N12       29.90R WCI   8
CHICAGO-MIDWAY PTCLDY    23  16  74 NW12      29.90R WCI  12
AURORA         CLEAR     17  12  80 NW12      29.92R WCI   4
LANSING*       FLURRIES  27  23  85 NW12      29.88R WCI  16
JOLIET*        CLEAR     24  18  78 NW5       29.91R WCI  18
WAUKEGAN       CLEAR     16  10  77 NW9       29.90R WCI   4
DUPAGE AIRPORT PTCLDY    18  13  80 NW7       29.89R WCI   9
KANKAKEE*      CLOUDY    28  19  69 NW12      29.89R WCI  18
WHEELING       CLEAR     19  12  74 NW10      29.92R WCI   7
MORRIS*        CLEAR     21  15  79 NW7       29.92R WCI  12
ROMEOVILLE*    CLEAR     21  17  81 NW8       29.91R WCI  12
$$

LMZ740>746-141000-
SOUTHERN LAKE MICHIGAN

STATION/POSITION SKY/WX   TEMP    WIND        PRES    VSBY  WAVE
                          AIR SEA DIR/SP/G                  HT/PER
                          (F)     (DEG/KT/KT) (MB)    (MI)  (FT/S)
HARRISON CRIB              25     310/ 19/ 22   N/A
BURNHAM HARBOR             24     280/  6/ 20   N/A
CALUMET HARBOR             25     300/  9/ 13 1011.6R
BURNS HARBOR               30      20/ 18/ 24 1011.9R
MICHIGAN CITY              28      10/ 25/ 28   N/A
$$

ILZ025>027-034>036-040-047-049-050-058-095>099-141000-
WEST-CENTRAL ILLINOIS

CITY           SKY/WX    TMP DP  RH WIND       PRES   REMARKS
QUINCY         CLOUDY    29  19  66 N12       29.97R WCI  19
GALESBURG*     CLOUDY    26  19  74 N10       29.97S WCI  16
MACOMB*        CLOUDY    26  18  69 N6        29.99R WCI  20
JACKSONVILLE*  CLOUDY    27  17  63 N7        29.97R WCI  20
PITTSFIELD*    CLOUDY    30  21  67 N8        29.97R WCI  23
$$

ILZ028>032-037-038-041>044-048-051>054-059>061-141000-
CENTRAL ILLINOIS

CITY           SKY/WX    TMP DP  RH WIND       PRES   REMARKS
PONTIAC        CLOUDY    24  20  86 NW8       29.93R WCI  14
BLOOMINGTON    CLOUDY    25  17  72 NW13      29.94R WCI  14
DECATUR        CLOUDY    27  17  66 N17       29.93R WCI  14
PEORIA         CLOUDY    25  16  68 N7        29.97R WCI  17
LACON*         CLOUDY    25  17  72 NW6       29.95R WCI  18
LINCOLN*       CLOUDY    29  19  67 N9        29.95R WCI  20
SPRINGFIELD    CLOUDY    30  18  60 NW8       29.96R WCI  22
TAYLORVILLE    CLOUDY    28  18  65 N10       29.95R WCI  18
$$

ILZ033-039-045-046-055>057-062-063-141000-
EAST-CENTRAL ILLINOIS

CITY           SKY/WX    TMP DP  RH WIND       PRES   REMARKS
CHAMPAIGN      CLOUDY    28  19  69 NW17      29.91R WCI  16
DANVILLE*      CLOUDY    28  19  70 NW13      29.86R WCI  17
RANTOUL*       CLOUDY    29  21  71 NW12      29.91R WCI  19
MATTOON        MOCLDY    25  18  74 NW13      29.91R WCI  14
PARIS*         CLOUDY    28  20  71 NW13G18   29.90R WCI  18
$$

ILZ079-100>102-141000-
SOUTHWEST ILLINOIS

CITY           SKY/WX    TMP DP  RH WIND       PRES   REMARKS
ALTON          CLOUDY    32  24  72 N9G16     29.96R WCI  25
CAHOKIA*       CLOUDY    37  24  59 N13       29.94R WCI  29
SPARTA*        CLOUDY    37  26  64 NW9       29.93S WCI  30
$$

ILZ064>066-069>071-074>076-080>082-084>086-088>090-092>094-141000-
SOUTH-CENTRAL ILLINOIS

CITY           SKY/WX    TMP DP  RH WIND       PRES   REMARKS
CARBONDALE     CLOUDY    38  25  59 MISG      29.91R
CAIRO*         PTCLDY    38  28  67 N10       29.90R WCI  31
EFFINGHAM*     CLOUDY    31  21  67 NW7       29.95R WCI  24
MARION         CLOUDY    38  27  62 N10       29.92R WCI  31
MT. VERNON     CLOUDY    35  24  64 NW9       29.93R WCI  28
CENTRALIA*     CLOUDY    35  26  70 N14G20    29.92S WCI  26
SALEM*         CLOUDY    34  22  62 N14       29.93R WCI  24
METROPOLIS*    PTCLDY    38  26  61 N14G20    29.91R WCI  30
$$

ILZ067-068-072-073-078-083-087-091-141000-
SOUTHEAST ILLINOIS

CITY           SKY/WX    TMP DP  RH WIND       PRES   REMARKS
LAWRENCEVILLE  CLOUDY    30  19  63 N15       29.93R WCI  19
FLORA*         CLOUDY    33  23  65 N12G17    29.93R WCI  24
FAIRFIELD*     CLOUDY    34  22  61 N9G16     29.92R WCI  27
HARRISBURG*    CLOUDY    36  26  65 N13       29.92R WCI  28
ROBINSON*      CLEAR     27  19  72 NW10      29.93R WCI  17
CARMI*         CLOUDY    36  25  64 N15       29.91R WCI  26
$$

ABBREVIATIONS USED IN REMARKS
   TC - TEMPERATURE IN CELSIUS
  WCI - WIND CHILL INDEX
   HX - HEAT INDEX
  VSB - VISIBILITY
$$





USA.gov is the U.S. government's official web portal to all federal, state and local government web resources and services.